Regional Weather Roundup
Issued by NWS Sioux Falls, SD

Home | Current Version | Previous Version | Text Only | Print | Product List | Glossary Off
Versions: 1 2 3 4 5 6 7 8 9 10 11 12 13 14 15 16 17 18 19 20 21 22 23 24 25 26 27 28 29 30 31 32 33 34 35 36 37 38 39 40 41 42 43 44 45 46 47 48 49 50

000
ASUS43 KFSD 232210
RWRFSD

WEATHER ROUNDUP FOR SE SOUTH DAKOTA/SW MINNESOTA/NW IOWA
NATIONAL WEATHER SERVICE SIOUX FALLS SD
500 PM CDT THU OCT 23 2014

NOTE: "FAIR" INDICATES FEW OR NO CLOUDS BELOW 12,000 FEET WITH NO
SIGNIFICANT WEATHER AND OR OBSTRUCTIONS TO VISIBILITY.


SDZ038>040-050-052>070-232300-
SOUTHEAST SOUTH DAKOTA

CITY           SKY/WX    TMP DP  RH WIND       PRES   REMARKS
CHAMBERLAIN    PTSUNNY   67  36  31 SE5       29.89S
HURON          SUNNY     71  44  37 S12       29.88F
MADISON        FAIR      66  45  45 SW14      29.94S
MITCHELL       SUNNY     73  37  27 SW8       29.90F
SIOUX FALLS    MOSUNNY   67  48  50 S12       29.95F
WINNER         FAIR      74  30  19 SW5       29.90S
YANKTON        SUNNY     72  46  40 S12       29.94S
$$

MNZ071-072-080-081-089-090-097-098-232300-
SOUTHWEST MINNESOTA

CITY           SKY/WX    TMP DP  RH WIND       PRES   REMARKS
FAIRMONT       SUNNY     70  30  23 W10       29.97S
JACKSON        SUNNY     68  34  28 W8        29.98S
LUVERNE        SUNNY     70  43  37 S10       29.97S
MARSHALL       SUNNY     70  39  32 SW10      29.93F
MONTEVIDEO     SUNNY     73  39  29 W6        29.93S
PIPESTONE      SUNNY     66  43  42 SW8       29.96S
REDWOOD FALLS  SUNNY     71  34  25 W7        29.94S
TRACY          SUNNY     69  40  35 SW10      29.96S
WINDOM         SUNNY     70  34  26 SW8       29.97S
WORTHINGTON    SUNNY     66  43  42 SW7       29.98F
$$

IAZ001>003-012>014-020>022-031-032-NEZ013-014-SDZ071-232300-
NORTHWEST IOWA

CITY           SKY/WX    TMP DP  RH WIND       PRES   REMARKS
CHEROKEE       SUNNY     68  47  47 SW6       29.99S
DENISON        SUNNY     70  43  37 SW6       29.98F
ESTHERVILLE    SUNNY     69  37  30 W7        29.98S
LE MARS        SUNNY     70  48  46 S10       29.98S
ORANGE CITY    SUNNY     70  37  30 SW10      29.98F
SHELDON        SUNNY     68  45  42 SW9       29.97S
SIOUX CITY     SUNNY     72  43  35 SW7       29.98S
SPENCER        SUNNY     69  42  37 W10       29.98F
STORM LAKE     SUNNY     68  43  40 W7        30.01S
$$

ABBREVIATIONS USED IN REMARKS
   TC - TEMPERATURE IN CELSIUS
  WCI - WIND CHILL INDEX
   HX - HEAT INDEX
  VSB - VISIBILITY




USA.gov is the U.S. government's official web portal to all federal, state and local government web resources and services.